Weather History for KHYR - April, 2014

Change the Weather History Date:

Saturday, April 19, 2014

  Actual Average Record
Temperature  
Mean Temperature 44 °F -  
Max Temperature 51 °F 59 °F 73 °F (2005)
Min Temperature 36 °F 28 °F 14 °F (2013)
Degree Days  
Heating Degree Days 22    
Moisture  
Dew Point 31 °F    
Average Humidity 63    
Maximum Humidity 86    
Minimum Humidity 43    
Precipitation  
Precipitation 0.07 in - - ()
Sea Level Pressure  
Sea Level Pressure 30.15 in    
Wind  
Wind Speed 10 mph (SSE)    
Max Wind Speed 23 mph    
Max Gust Speed 36 mph    
Visibility 10 miles    
Events Rain    
Averages and records for this station are not official NWS values.
T = Trace of Precipitation, MM = Missing Value Source: NWS Daily Summary

Daily Weather History Graph

Daily Weather History Graph

Search for Another Location

Airport or City:

Trip Planner

Search our weather history database for the weather conditions in past years. The results will help you decide how hot, cold, wet, or windy it might be!

Date:

Astronomy

Apr. 19, 2014 Rise Set
Actual Time 6:12 AM CDT 7:58 PM CDT
Civil Twilight 5:40 AM CDT 8:30 PM CDT
Nautical Twilight 5:02 AM CDT 9:08 PM CDT
Astronomical Twilight 4:20 AM CDT 9:51 PM CDT
Moon No Moon Rise 9:23 AM CDT (4/19)
Length of Visible Light 14h 49m
Length of Day
13h 45m
Waning Gibbous, 78% of the Moon is Illuminated
Apr 19
Waning Gibbous
Apr 22
Last Quarter
Apr 29
New
May 6
First Quarter
May 14
Full

Hourly Weather History & Observations

Time (CDT) Temp. Windchill Dew Point Humidity Pressure Visibility Wind Dir Wind Speed Gust Speed Precip Events Conditions
12:53 AM 39.0 °F 34.0 °F 18.0 °F 43% 30.32 in 10.0 mi ESE 6.9 mph - N/A   Clear
1:53 AM 39.0 °F 32.8 °F 18.0 °F 43% 30.32 in 10.0 mi SE 9.2 mph - N/A   Clear
2:53 AM 37.9 °F 32.7 °F 19.9 °F 48% 30.31 in 10.0 mi ESE 6.9 mph - N/A   Clear
4:53 AM 37.0 °F 28.9 °F 25.0 °F 62% 30.29 in 10.0 mi SE 12.7 mph 25.3 mph N/A   Overcast
5:53 AM 36.0 °F 25.0 °F 25.0 °F 64% 30.25 in 10.0 mi SE 20.7 mph 31.1 mph N/A   Partly Cloudy
7:53 AM 36.0 °F 26.0 °F 24.1 °F 62% 30.24 in 10.0 mi SSE 17.3 mph 23.0 mph N/A   Overcast
8:53 AM 37.9 °F 27.1 °F 21.9 °F 53% 30.19 in 10.0 mi SSE 23.0 mph 35.7 mph N/A   Overcast
9:53 AM 39.0 °F 30.6 °F 23.0 °F 53% 30.19 in 10.0 mi SSE 15.0 mph 23.0 mph N/A   Overcast
10:53 AM 41.0 °F 33.9 °F 24.1 °F 51% 30.17 in 10.0 mi SSE 12.7 mph 18.4 mph N/A   Overcast
11:53 AM 44.1 °F 36.5 °F 26.1 °F 49% 30.14 in 10.0 mi SSE 17.3 mph 23.0 mph N/A   Overcast
12:53 PM 46.9 °F - 28.0 °F 48% 30.10 in 10.0 mi South 15.0 mph 25.3 mph N/A   Overcast
1:53 PM 50.0 °F - 28.9 °F 44% 30.08 in 10.0 mi South 11.5 mph 21.9 mph N/A   Overcast
2:53 PM 50.0 °F - 32.0 °F 50% 30.09 in 10.0 mi Variable 3.5 mph - 0.01 in   Overcast
3:53 PM 45.0 °F 43.5 °F 39.0 °F 80% 30.08 in 5.0 mi South 3.5 mph - 0.03 in Rain Light Rain
4:53 PM 46.0 °F 43.9 °F 41.0 °F 83% 30.08 in 5.0 mi SSW 4.6 mph - 0.01 in Rain Light Rain
5:53 PM 48.9 °F - 41.0 °F 74% 30.04 in 10.0 mi South 10.4 mph - 0.02 in   Mostly Cloudy
6:53 PM 51.1 °F - 41.0 °F 68% 30.05 in 10.0 mi South 8.1 mph - N/A   Mostly Cloudy
7:53 PM 50.0 °F - 42.1 °F 74% 30.05 in 10.0 mi South 3.5 mph - N/A   Overcast
8:53 PM 48.0 °F - 41.0 °F 77% 30.05 in 10.0 mi South 3.5 mph - N/A   Mostly Cloudy
9:53 PM 46.9 °F - 41.0 °F 80% 30.06 in 10.0 mi South 5.8 mph - N/A   Overcast
10:53 PM 45.0 °F - 41.0 °F 86% 30.06 in 10.0 mi Calm Calm - N/A   Overcast
11:53 PM 43.0 °F - 39.0 °F 86% 30.05 in 8.0 mi Calm Calm - N/A   Overcast